Weather Roundup
Issued by NWS

Home | Current Version | Previous Version | Text Only | Print | Product List | Glossary On
Versions: 1 2 3 4 5 6 7 8 9 10 11 12 13 14 15 16 17 18 19 20 21 22 23 24 25 26 27 28 29 30 31 32 33 34 35 36 37 38 39 40 41 42 43 44 45 46 47 48 49 50
000
NZUS93 KARX 072010
HRRWXR

CURRENT HOURLY OBSERVATIONS ACROSS
MUCH OF THE UPPER MISSISSIPPI VALLEY
NATIONAL WEATHER SERVICE LA CROSSE WI
300 PM CDT TUE JUL 07 2015


...SOUTHEAST MINNESOTA...


CITY           SKY/WX    TMP DP  RH WIND       PRES   REMARKS
ROCHESTER      PTSUNNY   66  49  54 N12       30.15F
ROCHESTER/MAYO FAIR      66  44  46 N12G17    30.14F
WINONA         PTSUNNY   70  48  46 N9        30.12F
AUSTIN         PTSUNNY   66  46  48 N6        30.14S
ALBERT LEA     PTSUNNY   64  46  52 N5        30.14F
DODGE CENTER   MOSUNNY   64  48  55 N9        30.14F
PRESTON        MOSUNNY   63  47  56 NE8       30.14S
OWATONNA       MOSUNNY   66  48  52 N8G18     30.15S
FARIBAULT      CLOUDY    64  48  55 N7        30.16S
$$

...ELSEWHERE IN MINNESOTA...


CITY           SKY/WX    TMP DP  RH WIND       PRES   REMARKS
MINNEAPOLIS    PTSUNNY   68  47  46 N8G16     30.14F
INTNL FALLS    SUNNY     71  45  39 VRB3      30.09F
DULUTH         SUNNY     71  45  39 VRB7G20   30.12S
RED WING       PTSUNNY   70  45  40 N5        30.12F
REDWOOD FALLS  MOSUNNY   68  47  46 CALM      30.17F
MANKATO        PTSUNNY   66  45  45 NE3       30.16S
WORTHINGTON    MOSUNNY   64  48  55 N8G17     30.17F
FAIRMONT       MOSUNNY   64  46  52 NE8       30.15F
$$

...SOUTHWEST WISCONSIN...


CITY           SKY/WX    TMP DP  RH WIND       PRES   REMARKS
LA CROSSE      PTSUNNY   69  46  43 N8G17     30.11S
PRAIRIE DU CHI PTSUNNY   68  47  46 N10G16    30.09S
BOSCOBEL       MOSUNNY   70  50  49 N8        30.09S
LONE ROCK      PTSUNNY   67  48  50 N9        30.08S
PLATTEVILLE    CLOUDY    67  51  56 N10       30.07S
FORT MC COY    MOSUNNY   67  43  41 N5        30.11F
CAMP DOUGLAS   PTSUNNY   68  52  56 NW9       30.09F
VIROQUA        MOCLDY    65  48  53 N13       30.11S
WIS DELLS      CLOUDY    67  46  47 N7        30.09R
$$

...ELSEWHERE IN WISCONSIN...


CITY           SKY/WX    TMP DP  RH WIND       PRES   REMARKS
MILWAUKEE      MOSUNNY   64  49  57 NE14G24   30.05R
MADISON        PTSUNNY   67  51  56 N12G18    30.06S
GREEN BAY      CLOUDY    70  49  47 N12       30.06R
EAU CLAIRE     PTSUNNY   70  47  43 VRB6      30.11F
BLACK RVR FLS  CLOUDY    68  45  42 NW7       30.11S
MEDFORD        PTSUNNY   68  49  50 N7        30.10S
WAUSAU         MOSUNNY   67  46  47 N13       30.07S
WIS RAPIDS     PTSUNNY   69  45  41 N9        30.10S
MARSHFIELD     PTSUNNY   68  45  43 N12       30.10S
RICE LAKE      MOSUNNY   67  46  45 N8        30.14F
$$

...NORTHEAST IOWA...


CITY           SKY/WX    TMP DP  RH WIND       PRES   REMARKS
DECORAH        NOT AVBL
MASON CITY     PTSUNNY   66  50  56 N12       30.14F
CHARLES CITY   MOSUNNY   66  50  55 NE13      30.13S
OELWEIN        MOSUNNY   66  50  55 N9G16     30.11S
$$

...ELSEWHERE IN IOWA...


CITY           SKY/WX    TMP DP  RH WIND       PRES   REMARKS
DES MOINES     PTSUNNY   72  50  45 NE9G21    30.09F
IOWA CITY      MOSUNNY   71  55  56 NW10      30.07S
FORT DODGE     SUNNY     68  52  56 N10       30.13F
$$

...NORTHERN ILLINOIS...


CITY           SKY/WX    TMP DP  RH WIND       PRES   REMARKS
CHICAGO-OHARE  PTSUNNY   67  47  48 NE16G23   30.04R
CHICAGO-MIDWAY MOSUNNY   68  44  42 N22       30.04R
MOLINE         PTSUNNY   73  56  54 N8        30.04R HAZE
ROCKFORD       CLOUDY    72  51  47 NE14      30.05S
PEORIA         PTSUNNY   72  60  66 NE6       30.03S
$$

NOTE: "FAIR" INDICATES FEW OR NO CLOUDS BELOW 12,000 FEET WITH NO
SIGNIFICANT WEATHER AND/OR OBSTRUCTIONS TO VISIBILITY. WIND
SPEEDS ARE IN MILES-PER-HOUR.



USA.gov is the U.S. government's official web portal to all federal, state and local government web resources and services.